Starlink 31451

operational
NORAD ID: 59366 Int'l Des: 2024-060 Owner: SPXS Country: US Constellation: starlink
LEOCIRCULAR

About Starlink 31451

Description loading...

Live Position

Loading 3D Globe...

Upcoming Passes

Altitude History

Altitude vs Time

uPlot chart will show altitude changes over time

Two-Line Element Set

1 59366U 24060U 26036.17238586 .00002529 00000-0 10136-3 0 9990
2 59366 43.0024 83.1570 0001472 271.8937 88.1746 15.27590793105096
Epoch: Feb 5, 2026 • Age: 16 hours

Current Status

Altitude 482.4 km
Velocity 7.63 km/s
Sub-Earth Point 15.16°N, 21.34°E
Launch Date Mar 31, 2024
Age 1.8 years
Type internet

Technical Details

Classification Payload
Mass 730.00 kg
Dry Mass 700.00 kg
Total Mass 730.00 kg
Length 0.30 m
Diameter 4.10 m
Span 29.00 m
Shape Box + pan
Manufacturer SPXS
Bus Type Starlink V2M
Phase Status In Orbit
Owner/State SPXS/US

Large Constellations

Loading constellations...